SP9WPN-12 Weather Reports


Display with metric or nautical units.
time (UTC)temp
F
wind
direction
speed
MPH
gust
MPH
rain 1hr
in
rain 24hr
in
rain mn
in
humidity
%
barometer
mb
20260507115647 72 0.0 0.0 0.00 0.00 0.00 54 1011.1
20260507114650 71 0.0 0.0 0.00 0.00 0.00 56 1011.3
20260507113652 68 0.0 0.0 0.00 0.00 0.00 60 1011.5
20260507112655 68 0.0 0.0 0.00 0.00 0.00 64 1011.6
20260507111657 69 0.0 0.0 0.00 0.00 0.00 59 1011.4
20260507110700 71 0.0 0.0 0.00 0.00 0.00 54 1011.2
20260507105702 69 0.0 0.0 0.00 0.00 0.00 56 1011.2
20260507104705 70 0.0 0.0 0.00 0.00 0.00 58 1011.2
20260507102709 71 0.0 0.0 0.00 0.00 0.00 58 1011.1
20260507101711 69 0.0 0.0 0.00 0.00 0.00 60 1011.3
20260507100713 70 0.0 0.0 0.00 0.00 0.00 59 1011.3
20260507095715 69 0.0 0.0 0.00 0.00 0.00 60 1011.3
20260507094717 69 0.0 0.0 0.00 0.00 0.00 60 1011.1
20260507093720 70 0.0 0.0 0.00 0.00 0.00 60 1011.1
20260507092722 70 0.0 0.0 0.00 0.00 0.00 59 1011.1
20260507091724 69 0.0 0.0 0.00 0.00 0.00 61 1011.0
20260507090727 68 0.0 0.0 0.00 0.00 0.00 64 1010.9
20260507085730 69 0.0 0.0 0.00 0.00 0.00 62 1010.7
20260507084732 70 0.0 0.0 0.00 0.00 0.00 62 1010.6
20260507083734 66 0.0 0.0 0.00 0.00 0.00 68 1010.9
20260507082737 66 0.0 0.0 0.00 0.00 0.00 68 1010.7
20260507081738 66 0.0 0.0 0.00 0.00 0.00 70 1010.6
20260507080740 65 0.0 0.0 0.00 0.00 0.00 70 1010.6
20260507075743 66 0.0 0.0 0.00 0.00 0.00 69 1010.5
20260507074745 68 0.0 0.0 0.00 0.00 0.00 66 1010.2
20260507073747 66 0.0 0.0 0.00 0.00 0.00 70 1010.2
20260507072749 65 0.0 0.0 0.00 0.00 0.00 72 1010.0
20260507071752 65 0.0 0.0 0.00 0.00 0.00 72 1010.1
20260507070754 63 0.0 0.0 0.00 0.00 0.00 73 1010.1
20260507065756 66 0.0 0.0 0.00 0.00 0.00 70 1009.8
20260507064758 64 0.0 0.0 0.00 0.00 0.00 72 1009.8
20260507063759 63 0.0 0.0 0.00 0.00 0.00 73 1009.8
20260507062801 64 0.0 0.0 0.00 0.00 0.00 73 1009.8
20260507061803 63 0.0 0.0 0.00 0.00 0.00 73 1009.7
20260507060805 62 0.0 0.0 0.00 0.00 0.00 75 1009.8
20260507055807 61 0.0 0.0 0.00 0.00 0.00 77 1009.7
20260507054810 60 0.0 0.0 0.00 0.00 0.00 79 1009.7
20260507053812 60 0.0 0.0 0.00 0.00 0.00 80 1009.6
20260507052815 60 0.0 0.0 0.00 0.00 0.00 80 1009.6
20260507051818 60 0.0 0.0 0.00 0.00 0.00 79 1009.5
20260507050821 60 0.0 0.0 0.00 0.00 0.00 79 1009.4
20260507045824 60 0.0 0.0 0.00 0.00 0.00 79 1009.2
20260507043828 60 0.0 0.0 0.00 0.00 0.00 78 1009.1
20260507042829 60 0.0 0.0 0.00 0.00 0.00 77 1009.0
20260507041832 60 0.0 0.0 0.00 0.00 0.00 78 1008.8
20260507040834 60 0.0 0.0 0.00 0.00 0.00 77 1008.7
20260507035835 60 0.0 0.0 0.00 0.00 0.00 77 1008.6
20260507034838 60 0.0 0.0 0.00 0.00 0.00 76 1008.5
20260507033840 60 0.0 0.0 0.00 0.00 0.00 76 1008.4
20260507032843 60 0.0 0.0 0.00 0.00 0.00 77 1008.3
20260507031845 60 0.0 0.0 0.00 0.00 0.00 76 1008.3
20260507030847 60 0.0 0.0 0.00 0.00 0.00 77 1008.1
20260507025850 60 0.0 0.0 0.00 0.00 0.00 76 1008.0
20260507024853 60 0.0 0.0 0.00 0.00 0.00 76 1007.9
20260507023854 59 0.0 0.0 0.00 0.00 0.00 78 1008.1
20260507022857 58 0.0 0.0 0.00 0.00 0.00 81 1008.1
20260507021859 58 0.0 0.0 0.00 0.00 0.00 79 1008.0
20260507020855 58 0.0 0.0 0.00 0.00 0.00 81 1008.1
20260507015858 57 0.0 0.0 0.00 0.00 0.00 83 1008.1
20260507014900 56 0.0 0.0 0.00 0.00 0.00 83 1008.1
20260507013902 56 0.0 0.0 0.00 0.00 0.00 84 1008.0
20260507012904 57 0.0 0.0 0.00 0.00 0.00 81 1007.8
20260507011906 57 0.0 0.0 0.00 0.00 0.00 80 1007.9
20260507010908 57 0.0 0.0 0.00 0.00 0.00 82 1008.0
20260507005911 56 0.0 0.0 0.00 0.00 0.00 81 1007.9
20260507004914 57 0.0 0.0 0.00 0.00 0.00 80 1007.7
20260507003916 58 0.0 0.0 0.00 0.00 0.00 78 1007.7
20260507002918 58 0.0 0.0 0.00 0.00 0.00 78 1007.7
20260507001920 58 0.0 0.0 0.00 0.00 0.00 77 1007.6
20260507000922 59 0.0 0.0 0.00 0.00 0.00 75 1007.5
20260506235924 60 0.0 0.0 0.00 0.00 0.00 73 1007.5
20260506234927 60 0.0 0.0 0.00 0.00 0.00 72 1007.5
20260506233929 61 0.0 0.0 0.00 0.00 0.00 69 1007.5
20260506232931 62 0.0 0.0 0.00 0.00 0.00 67 1007.3
20260506231933 63 0.0 0.0 0.00 0.00 0.00 66 1007.3
20260506230937 63 0.0 0.0 0.00 0.00 0.00 66 1007.3
20260506225938 63 0.0 0.0 0.00 0.00 0.00 64 1007.3
20260506224941 63 0.0 0.0 0.00 0.00 0.00 65 1007.2
20260506223943 62 0.0 0.0 0.00 0.00 0.00 67 1007.2
20260506222946 61 0.0 0.0 0.00 0.00 0.00 69 1007.2
20260506221947 62 0.0 0.0 0.00 0.00 0.00 67 1007.1
20260506220951 62 0.0 0.0 0.00 0.00 0.00 65 1007.1
20260506215953 64 0.0 0.0 0.00 0.00 0.00 63 1006.9
20260506214955 64 0.0 0.0 0.00 0.00 0.00 62 1007.0
20260506213958 65 0.0 0.0 0.00 0.00 0.00 60 1006.9
20260506213001 65 0.0 0.0 0.00 0.00 0.00 59 1007.0
20260506212002 66 0.0 0.0 0.00 0.00 0.00 58 1006.9
20260506211004 66 0.0 0.0 0.00 0.00 0.00 58 1006.9
20260506210006 66 0.0 0.0 0.00 0.00 0.00 57 1006.8
20260506205009 66 0.0 0.0 0.00 0.00 0.00 57 1006.7
20260506204011 66 0.0 0.0 0.00 0.00 0.00 58 1006.6
20260506203014 65 0.0 0.0 0.00 0.00 0.00 60 1006.7
20260506202017 65 0.0 0.0 0.00 0.00 0.00 61 1006.6
20260506201018 65 0.0 0.0 0.00 0.00 0.00 60 1006.6
20260506200021 65 0.0 0.0 0.00 0.00 0.00 61 1006.6
20260506195024 65 0.0 0.0 0.00 0.00 0.00 61 1006.6
20260506194026 65 0.0 0.0 0.00 0.00 0.00 60 1006.6
20260506193029 67 0.0 0.0 0.00 0.00 0.00 56 1006.3
20260506192031 67 0.0 0.0 0.00 0.00 0.00 55 1006.3
20260506191033 68 0.0 0.0 0.00 0.00 0.00 53 1006.2
20260506190036 69 0.0 0.0 0.00 0.00 0.00 52 1006.0
20260506185039 69 0.0 0.0 0.00 0.00 0.00 51 1005.9
20260506184041 69 0.0 0.0 0.00 0.00 0.00 51 1005.8
20260506183043 70 0.0 0.0 0.00 0.00 0.00 51 1005.7
20260506182046 70 0.0 0.0 0.00 0.00 0.00 50 1005.5
20260506181047 71 0.0 0.0 0.00 0.00 0.00 50 1005.5
20260506180049 71 0.0 0.0 0.00 0.00 0.00 49 1005.4
20260506175052 72 0.0 0.0 0.00 0.00 0.00 48 1005.4
20260506174055 72 0.0 0.0 0.00 0.00 0.00 46 1005.2
20260506173058 73 0.0 0.0 0.00 0.00 0.00 45 1005.2
20260506172100 73 0.0 0.0 0.00 0.00 0.00 45 1005.2
20260506171102 74 0.0 0.0 0.00 0.00 0.00 45 1005.3
20260506170104 74 0.0 0.0 0.00 0.00 0.00 45 1005.2
20260506165107 74 0.0 0.0 0.00 0.00 0.00 45 1005.2
20260506164109 74 0.0 0.0 0.00 0.00 0.00 44 1005.2
20260506163111 74 0.0 0.0 0.00 0.00 0.00 44 1005.4
20260506162113 75 0.0 0.0 0.00 0.00 0.00 43 1005.5
20260506161115 75 0.0 0.0 0.00 0.00 0.00 42 1005.5
20260506160117 76 0.0 0.0 0.00 0.00 0.00 40 1005.4
20260506155120 76 0.0 0.0 0.00 0.00 0.00 40 1005.4
20260506154122 77 0.0 0.0 0.00 0.00 0.00 39 1005.4
20260506153126 78 0.0 0.0 0.00 0.00 0.00 38 1005.5
20260506152128 77 0.0 0.0 0.00 0.00 0.00 38 1005.5
20260506151131 77 0.0 0.0 0.00 0.00 0.00 38 1005.5
20260506150133 80 0.0 0.0 0.00 0.00 0.00 36 1005.4
20260506145135 79 0.0 0.0 0.00 0.00 0.00 36 1005.5
20260506144136 80 0.0 0.0 0.00 0.00 0.00 36 1005.7
20260506143139 81 0.0 0.0 0.00 0.00 0.00 35 1005.7
20260506142142 79 0.0 0.0 0.00 0.00 0.00 37 1005.9
20260506141144 77 0.0 0.0 0.00 0.00 0.00 37 1006.0
20260506140146 77 0.0 0.0 0.00 0.00 0.00 36 1006.0
20260506135148 80 0.0 0.0 0.00 0.00 0.00 36 1005.9
20260506134151 80 0.0 0.0 0.00 0.00 0.00 36 1005.8
20260506133152 79 0.0 0.0 0.00 0.00 0.00 38 1006.1
20260506132154 80 0.0 0.0 0.00 0.00 0.00 37 1006.0
20260506131157 79 0.0 0.0 0.00 0.00 0.00 39 1006.1
20260506130159 78 0.0 0.0 0.00 0.00 0.00 39 1006.2
20260506125201 80 0.0 0.0 0.00 0.00 0.00 37 1006.3
20260506124204 82 0.0 0.0 0.00 0.00 0.00 36 1006.3
20260506123206 79 0.0 0.0 0.00 0.00 0.00 40 1006.5
20260506122209 76 0.0 0.0 0.00 0.00 0.00 41 1006.7
20260506121211 79 0.0 0.0 0.00 0.00 0.00 40 1006.5